User: anonymous   Login
Location: Stoke Bliss
(52.2667°N, 2.5167°W)
Time: 01:50:45
(UTC+00:00)
Language:

HJ-1C - Orbit

View from above orbital plane
View from above orbital plane
View from above satellite
View from above satellite

Ground track
Ground track

The orbit data is extracted from the following two-line orbital elements,

1 38997U 12064A   21136.60612351  .00003913  00000-0  86919-4 0  9999
2 38997  97.1204 166.2143 0007621 225.0988 250.9663 15.44256956477167
Epoch (UTC): 16 May 2021 14:32:49
Eccentricity: 0.0007621
inclination: 97.1204°
perigee height: 428 km
apogee height: 439 km
right ascension of ascending node: 166.2143°
argument of perigee: 225.0988°
revolutions per day: 15.44256956
mean anomaly at epoch: 250.9663°
orbit number at epoch: 47716

The dashed part of the orbit path shows where the satellite is in the earth's shadow,  

DLR